Tracking 20712 objects as of 29-May-2020
HD Live streaming from Space Station
objects crossing your sky now

SL-16 DEB

Track SL-16 DEB now!
10-day predictions


NORAD ID: 39879
Int'l Code: 1993-016BD
Perigee: 736.0 km
Apogee: 912.5 km
Inclination: 71.0 °
Period: 101.2 minutes
Semi major axis: 7195 km
RCS: 0.0122 m2 (small)
Launch date: March 26, 1993
Source: Commonwealth of Independent States (former USSR) (CIS)
Launch site: TYURATAM MISSILE AND SPACE COMPLEX (TTMTR)

Note: This is SATELLITE DEBRIS
aabbcc
Your satellite tracking list
Your tracking list is empty




NASA's NSSDC Master Catalog

Two Line Element Set (TLE):
1 39879U 93016BD  20150.52708861 +.00001279 +00000-0 +55165-3 0  9994
2 39879 070.9826 264.7717 0122611 273.4481 103.2633 14.22437800309850
Source of the keplerian elements: AFSPC